Location: Lansingburgh
(42.7845°N, 73.6696°W)
Time: 15:23:38
(UTC+00:00)

Cosmos 2219 - Pass Details

Date: 24 January 2020
Orbit: 833 x 861 km, 71.1° (Epoch: 26 February)

Event Time Altitude Azimuth Distance (km) Brightness Sun altitude
Rises 22:33:07 0° 207° (SSW) 3,364 7.1 -7.0°
Reaches altitude 10° 22:35:32 10° 209° (SSW) 2,435 6.4 -7.4°
Maximum altitude 22:41:07 77° 295° (WNW) 861 3.4 -8.4°
Drops below altitude 10° 22:46:47 10° 22° (NNE) 2,462 5.3 -9.4°
Sets 22:49:15 0° 24° (NNE) 3,405 6.0 -9.8°
